Regional Weather Roundup
Issued by NWS Upton, NY

Home | Current Version | Previous Version | Text Only | Print | Product List | Glossary On
Versions: 1 2 3 4 5 6 7 8 9 10 11 12 13 14 15 16 17 18 19 20 21 22 23 24 25 26 27
000
ASUS41 KOKX 220605
RWROKX

Regional Weather Roundup
National Weather Service New York NY
200 AM EDT TUE MAY 22 2018

Note: "FAIR" indicates few or no clouds below 12,000 feet with no
significant weather and/or obstructions to visibility.

NYZ071-072-176-178-NJZ106-104-220700-
New York City Metro Area

CITY           SKY/WX    TMP DP  RH WIND       PRES   REMARKS
Central Park   FAIR      62  47  57 W3        30.18F
Bronx Bot Gard   N/A     61  45  55 SE2       30.17S
Bronx Lehman C   N/A     64  46  52 SW5         N/A
LaGuardia Arpt MOCLDY    65  44  46 S6        30.15F
Queens College   N/A     63  46  55 S3          N/A
Kennedy Intl   MOCLDY    58  53  84 S3        30.17S
Breezy Point     N/A     57 N/A N/A S3          N/A
Brooklyn Coll    N/A     63  48  59 S2          N/A
Staten Island    N/A     57  50  77 S3          N/A
Newark/Liberty MOCLDY    62  49  62 S3        30.15F
Teterboro      FAIR      61  51  70 CALM      30.14F
$$

NYZ177-179-078>081-220700-
Long Island New York

CITY           SKY/WX    TMP DP  RH WIND       PRES   REMARKS
Jones Beach      N/A     57 N/A N/A S2          N/A
Wantagh          N/A     57  54  88 SW1         N/A
Hempstead        N/A     57  54  88 CALM      30.19S
Matinecock Pt    N/A     59 N/A N/A S2          N/A
Farmingdale    FAIR      56  52  86 CALM      30.16F
MacArthur/ISP  FAIR      55  49  80 CALM      30.16S
Stony Brook      N/A     55  50  82 SW1         N/A
Shirley        FAIR      52  51  97 CALM      30.17S
Mt Sinai Harb    N/A    N/A N/A N/A S1          N/A
Westhampton    FAIR      45  42  89 CALM      30.19S
East Hampton   FAIR      45  43  93 CALM      30.17S
Southold         N/A     50  50 100 S1          N/A
Montauk          N/A     56  49  77 CALM      30.18S
$$

NYZ052-065-067-220700-
Hudson Valley

CITY           SKY/WX    TMP DP  RH WIND       PRES   REMARKS
White Plains   FAIR      55  51  86 CALM      30.15F
Larchmont Harb   N/A     55 N/A N/A N2          N/A
Croton On Huds   N/A     57 N/A N/A E2          N/A
Somers           N/A     55  52  88 NE1         N/A
Brewster         N/A     52  50  93 NW1         N/A
Newburgh       CLEAR     59  54  82 CALM      30.15S
Montgomery     FAIR      56  53  90 CALM      30.14R
Otisville        N/A     55  54  94 S3          N/A
Warwick          N/A     55  55 100 E1          N/A
Suffern          N/A     57  52  82 N1          N/A
Poughkeepsie   FAIR      54  51  90 CALM      30.14R
Albany         CLOUDY    57  48  72 S3        30.15S
$$

NJZ001-105-106-008-010-013-015-019>022-104-220700-
New Jersey

CITY           SKY/WX    TMP DP  RH WIND       PRES   REMARKS
Newark/Liberty MOCLDY    62  49  62 S3        30.15F
Teterboro      FAIR      61  51  70 CALM      30.14F
Caldwell       FAIR      60  52  74 CALM      30.16S
Somerville     FAIR      53  53 100 CALM      30.14S
Linden         FAIR      60  48  64 CALM      30.16S
Perth Amboy      N/A     59 N/A N/A SW3         N/A
Sussex         FAIR      56  54  93 CALM      30.15S
Andover          N/A     59  55  87 CALM      30.15F
Trenton        FAIR      60  52  74 CALM      30.15S
Millville      FAIR      56  54  93 CALM      30.16S
Atlantic City  FAIR      55  53  93 CALM      30.16S
Wrightstown    FAIR      54  52  93 CALM      30.13
Toms River     FAIR      49  46  90 CALM      30.17S
Belmar         FAIR      56  50  80 SW3       30.17S
$$

PAZ047>061-062-071-220700-
Eastern Pennsylvania

CITY           SKY/WX    TMP DP  RH WIND       PRES   REMARKS
Philadelphia   MOCLDY    62  53  72 S5        30.16F
Allentown      FAIR      62  54  74 CALM      30.15S
Scranton       FAIR      59  50  72 VRB3      30.14F
$$

CTZ002-004>006-009-010-012-RIZ004-006-007-MAZ004-011-015-220700-
Southern New England

 In CT

CITY           SKY/WX    TMP DP  RH WIND       PRES   REMARKS
Bradley Intl   MOCLDY    53  49  86 CALM      30.15S
Hartford       FAIR      57  52  83 S3        30.15S
Danbury        FAIR      51  50  96 CALM      30.17S
Wtrbury/Oxford FAIR      53  50  89 CALM      30.18R
Norwalk Harbor   N/A     57 N/A N/A SW2         N/A
Bridgeport     FAIR      59  54  83 SW3       30.16S
Meriden        FAIR      52  50  93 S3        30.16S
New Haven      FAIR      55  52  89 CALM      30.16S
Chester        FAIR      57  52  82 SW5       30.16S
Groton         FAIR      55  50  83 CALM      30.16S
Willimantic    FAIR      53  51  93 CALM      30.16S

 In RI

CITY           SKY/WX    TMP DP  RH WIND       PRES   REMARKS
Providence     FAIR      55  50  83 W3        30.15S
Block Island     N/A    N/A N/A N/A MISG        N/A
Westerly       FAIR      54  51  90 CALM      30.17R

In MA

CITY           SKY/WX    TMP DP  RH WIND       PRES   REMARKS
Boston         FAIR      60  49  66 SW5       30.13R
Worcester      FAIR      60  43  53 W9        30.15S
Westfield      FAIR      51  49  92 CALM      30.15S
Provincetown   FAIR      53  50  89 S5        30.14S
Nantucket      FAIR      51  49  92 SW8       30.16S
$$

ANZ330-335-338-340-345-350-353-355-220700-
Coastal Marine Observations


STATION/POSITION TIME  SKY/WX   TEMP    WIND        PRES    VSBY  WAVE
                                AIR SEA DIR/SP/G                  HT/PER
                 (UTC)          (F)     (DEG/KT/KT) (MB)    (MI)  (FT/S)
NY Harb Entrance 0550            56 55   CALM  /  2 1021.3          2/ 9
20 S Fire Island 0550            54 53  320/  4/  4 1021.5          3/ 8
23 SSW Montauk P 0550            54 53  270/  4/  6 1021.8          3/ 9
15 E Barnegat Li 0530               56                N/A           3/ 9
Hudson Canyon    0550            56 53  160/  4/  4 1021.0          3/ 9
Kings Point      0536            62 57  190/  5/  6 1022.0
Execution Rocks  NOT AVBL
Western LI Sound NOT AVBL
Central LI Sound 0545            56     190/  4/  4   N/A           1
Robbins Reef     0548            62     200/  4/  5 1021.7
$$


>>>>>>>>>>>>>>>>>>>>>>>>>>>> KEY <<<<<<<<<<<<<<<<<<<<<<<<<<<
>                                                          <
>     SKY/WX - Sky Condition/Present Weather               <
>     TMP    - Temperature in Fahrenheit                   <
>     DP     - Dew Point in Fahrenheit                     <
>     RH     - Relative Humidity in Percent                <
>     WIND   - Direction (from) and Speed in MPH           <
>     PRES   - Mean Sea Level Pressure (inches of Hg)      <
>     WCI    - Wind Chill Index                            <
>     VSB    - Visibility in Miles                         <
>     HX     - Heat Index                                  <
>     TC     - Temperature in Celsius                      <
>     VRB    - Varibale Wind Direction                     <
>                                                          <
>>>>>>>>>>>>>>>>>>>>>>>>>>>> KEY <<<<<<<<<<<<<<<<<<<<<<<<<<<




USA.gov is the U.S. government's official web portal to all federal, state and local government web resources and services.